Year,Month,Day,Hour,Minute,Value (Times are PST for windgust in km/hr)
2012,11,17,00,00,3.20
2012,11,17,00,01,6.40
2012,11,17,00,02,3.20
2012,11,17,00,03,3.20
2012,11,17,00,04,3.20
2012,11,17,00,05,1.60
2012,11,17,00,06,3.20
2012,11,17,00,07,9.60
2012,11,17,00,08,9.60
2012,11,17,00,09,11.30
2012,11,17,00,10,6.40
2012,11,17,00,11,4.80
2012,11,17,00,12,11.30
2012,11,17,00,13,8.10
2012,11,17,00,14,4.80
2012,11,17,00,15,3.20
2012,11,17,00,16,6.40
2012,11,17,00,17,8.10
2012,11,17,00,18,4.80
2012,11,17,00,19,4.80
2012,11,17,00,20,3.20
2012,11,17,00,21,11.30
2012,11,17,00,22,8.10
2012,11,17,00,23,8.10
2012,11,17,00,24,6.40
2012,11,17,00,25,4.80
2012,11,17,00,26,4.80
2012,11,17,00,27,4.80
2012,11,17,00,28,4.80
2012,11,17,00,29,4.80
2012,11,17,00,30,8.10
2012,11,17,00,31,14.50
2012,11,17,00,32,9.60
2012,11,17,00,33,6.40
2012,11,17,00,34,8.10
2012,11,17,00,35,8.10
2012,11,17,00,36,6.40
2012,11,17,00,37,9.60
2012,11,17,00,38,9.60
2012,11,17,00,39,4.80
2012,11,17,00,40,6.40
2012,11,17,00,41,11.30
2012,11,17,00,42,8.10
2012,11,17,00,43,8.10
2012,11,17,00,44,9.60
2012,11,17,00,45,9.60
2012,11,17,00,46,8.10
2012,11,17,00,47,6.40
2012,11,17,00,48,8.10
2012,11,17,00,49,9.60
2012,11,17,00,50,9.60
2012,11,17,00,51,8.10
2012,11,17,00,52,9.60
2012,11,17,00,53,9.60
2012,11,17,00,54,6.40
2012,11,17,00,55,8.10
2012,11,17,00,56,14.50
2012,11,17,00,57,16.10
2012,11,17,00,58,14.50
2012,11,17,00,59,9.60
2012,11,17,01,00,11.30
2012,11,17,01,01,6.40
2012,11,17,01,02,9.60
2012,11,17,01,03,11.30
2012,11,17,01,04,6.40
2012,11,17,01,05,6.40
2012,11,17,01,06,6.40
2012,11,17,01,07,8.10
2012,11,17,01,08,6.40
2012,11,17,01,09,11.30
2012,11,17,01,10,8.10
2012,11,17,01,11,9.60
2012,11,17,01,12,4.80
2012,11,17,01,13,8.10
2012,11,17,01,14,8.10
2012,11,17,01,15,3.20
2012,11,17,01,16,6.40
2012,11,17,01,17,6.40
2012,11,17,01,18,9.60
2012,11,17,01,19,6.40
2012,11,17,01,20,6.40
2012,11,17,01,21,3.20
2012,11,17,01,22,1.60
2012,11,17,01,23,1.60
2012,11,17,01,24,1.60
2012,11,17,01,25,6.40
2012,11,17,01,26,6.40
2012,11,17,01,27,3.20
2012,11,17,01,28,1.60
2012,11,17,01,29,3.20
2012,11,17,01,30,3.20
2012,11,17,01,31,3.20
2012,11,17,01,32,4.80
2012,11,17,01,33,3.20
2012,11,17,01,34,4.80
2012,11,17,01,35,4.80
2012,11,17,01,36,6.40
2012,11,17,01,37,3.20
2012,11,17,01,38,3.20
2012,11,17,01,39,3.20
2012,11,17,01,40,4.80
2012,11,17,01,41,9.60
2012,11,17,01,42,6.40
2012,11,17,01,43,11.30
2012,11,17,01,44,14.50
2012,11,17,01,45,11.30
2012,11,17,01,46,9.60
2012,11,17,01,47,4.80
2012,11,17,01,48,9.60
2012,11,17,01,49,9.60
2012,11,17,01,50,8.10
2012,11,17,01,51,9.60
2012,11,17,01,52,9.60
2012,11,17,01,53,8.10
2012,11,17,01,54,9.60
2012,11,17,01,55,8.10
2012,11,17,01,56,8.10
2012,11,17,01,57,12.90
2012,11,17,01,58,17.70
2012,11,17,01,59,9.60
2012,11,17,02,00,11.30
2012,11,17,02,01,11.30
2012,11,17,02,02,17.70
2012,11,17,02,03,9.60
2012,11,17,02,04,17.70
2012,11,17,02,05,19.30
2012,11,17,02,06,16.10
2012,11,17,02,07,16.10
2012,11,17,02,08,8.10
2012,11,17,02,09,16.10
2012,11,17,02,10,17.70
2012,11,17,02,11,20.90
2012,11,17,02,12,20.90
2012,11,17,02,13,20.90
2012,11,17,02,14,20.90
2012,11,17,02,15,17.70
2012,11,17,02,16,14.50
2012,11,17,02,17,24.20
2012,11,17,02,18,22.50
2012,11,17,02,19,19.30
2012,11,17,02,20,24.20
2012,11,17,02,21,20.90
2012,11,17,02,22,33.80
2012,11,17,02,23,37.00
2012,11,17,02,24,14.50
2012,11,17,02,25,16.10
2012,11,17,02,26,16.10
2012,11,17,02,27,9.60
2012,11,17,02,28,11.30
2012,11,17,02,29,11.30
2012,11,17,02,30,14.50
2012,11,17,02,31,17.70
2012,11,17,02,32,14.50
2012,11,17,02,33,9.60
2012,11,17,02,34,27.40
2012,11,17,02,35,24.20
2012,11,17,02,36,20.90
2012,11,17,02,37,33.80
2012,11,17,02,38,24.20
2012,11,17,02,39,20.90
2012,11,17,02,40,22.50
2012,11,17,02,41,25.70
2012,11,17,02,42,17.70
2012,11,17,02,43,22.50
2012,11,17,02,44,17.70
2012,11,17,02,45,37.00
2012,11,17,02,46,20.90
2012,11,17,02,47,29.00
2012,11,17,02,48,19.30
2012,11,17,02,49,14.50
2012,11,17,02,50,12.90
2012,11,17,02,51,11.30
2012,11,17,02,52,9.60
2012,11,17,02,53,24.20
2012,11,17,02,54,20.90
2012,11,17,02,55,17.70
2012,11,17,02,56,17.70
2012,11,17,02,57,14.50
2012,11,17,02,58,19.30
2012,11,17,02,59,16.10
2012,11,17,03,00,19.30
2012,11,17,03,01,4.80
2012,11,17,03,02,8.10
2012,11,17,03,03,14.50
2012,11,17,03,04,4.80
2012,11,17,03,05,9.60
2012,11,17,03,06,17.70
2012,11,17,03,07,12.90
2012,11,17,03,08,20.90
2012,11,17,03,09,16.10
2012,11,17,03,10,20.90
2012,11,17,03,11,30.60
2012,11,17,03,12,40.20
2012,11,17,03,13,20.90
2012,11,17,03,14,20.90
2012,11,17,03,15,19.30
2012,11,17,03,16,11.30
2012,11,17,03,17,17.70
2012,11,17,03,18,25.70
2012,11,17,03,19,17.70
2012,11,17,03,20,9.60
2012,11,17,03,21,24.20
2012,11,17,03,22,20.90
2012,11,17,03,23,20.90
2012,11,17,03,24,25.70
2012,11,17,03,25,22.50
2012,11,17,03,26,32.20
2012,11,17,03,27,22.50
2012,11,17,03,28,16.10
2012,11,17,03,29,9.60
2012,11,17,03,30,19.30
2012,11,17,03,31,20.90
2012,11,17,03,32,30.60
2012,11,17,03,33,20.90
2012,11,17,03,34,16.10
2012,11,17,03,35,8.10
2012,11,17,03,36,11.30
2012,11,17,03,37,24.20
2012,11,17,03,38,19.30
2012,11,17,03,39,14.50
2012,11,17,03,40,11.30
2012,11,17,03,41,9.60
2012,11,17,03,42,22.50
2012,11,17,03,43,22.50
2012,11,17,03,44,12.90
2012,11,17,03,45,11.30
2012,11,17,03,46,19.30
2012,11,17,03,47,14.50
2012,11,17,03,48,12.90
2012,11,17,03,49,8.10
2012,11,17,03,50,14.50
2012,11,17,03,51,19.30
2012,11,17,03,52,17.70
2012,11,17,03,53,16.10
2012,11,17,03,54,14.50
2012,11,17,03,55,9.60
2012,11,17,03,56,24.20
2012,11,17,03,57,19.30
2012,11,17,03,58,17.70
2012,11,17,03,59,19.30
2012,11,17,04,00,20.90
2012,11,17,04,01,14.50
2012,11,17,04,02,9.60
2012,11,17,04,03,19.30
2012,11,17,04,04,16.10
2012,11,17,04,05,16.10
2012,11,17,04,06,14.50
2012,11,17,04,07,17.70
2012,11,17,04,08,16.10
2012,11,17,04,09,24.20
2012,11,17,04,10,22.50
2012,11,17,04,11,16.10
2012,11,17,04,12,16.10
2012,11,17,04,13,19.30
2012,11,17,04,14,9.60
2012,11,17,04,15,33.80
2012,11,17,04,16,24.20
2012,11,17,04,17,27.40
2012,11,17,04,18,20.90
2012,11,17,04,19,29.00
2012,11,17,04,20,30.60
2012,11,17,04,21,16.10
2012,11,17,04,22,17.70
2012,11,17,04,23,22.50
2012,11,17,04,24,27.40
2012,11,17,04,25,22.50
2012,11,17,04,26,8.10
2012,11,17,04,27,20.90
2012,11,17,04,28,19.30
2012,11,17,04,29,30.60
2012,11,17,04,30,20.90
2012,11,17,04,31,16.10
2012,11,17,04,32,20.90
2012,11,17,04,33,16.10
2012,11,17,04,34,16.10
2012,11,17,04,35,14.50
2012,11,17,04,36,16.10
2012,11,17,04,37,16.10
2012,11,17,04,38,16.10
2012,11,17,04,39,9.60
2012,11,17,04,40,6.40
2012,11,17,04,41,6.40
2012,11,17,04,42,8.10
2012,11,17,04,43,19.30
2012,11,17,04,44,17.70
2012,11,17,04,45,17.70
2012,11,17,04,46,6.40
2012,11,17,04,47,8.10
2012,11,17,04,48,9.60
2012,11,17,04,49,6.40
2012,11,17,04,50,4.80
2012,11,17,04,51,9.60
2012,11,17,04,52,9.60
2012,11,17,04,53,6.40
2012,11,17,04,54,17.70
2012,11,17,04,55,4.80
2012,11,17,04,56,9.60
2012,11,17,04,57,14.50
2012,11,17,04,58,14.50
2012,11,17,04,59,6.40
2012,11,17,05,00,9.60
2012,11,17,05,01,11.30
2012,11,17,05,02,16.10
2012,11,17,05,03,11.30
2012,11,17,05,04,9.60
2012,11,17,05,05,11.30
2012,11,17,05,06,17.70
2012,11,17,05,07,11.30
2012,11,17,05,08,11.30
2012,11,17,05,09,11.30
2012,11,17,05,10,8.10
2012,11,17,05,11,9.60
2012,11,17,05,12,8.10
2012,11,17,05,13,19.30
2012,11,17,05,14,19.30
2012,11,17,05,15,6.40
2012,11,17,05,16,11.30
2012,11,17,05,17,9.60
2012,11,17,05,18,6.40
2012,11,17,05,19,4.80
2012,11,17,05,20,8.10
2012,11,17,05,21,9.60
2012,11,17,05,22,6.40
2012,11,17,05,23,6.40
2012,11,17,05,24,9.60
2012,11,17,05,25,11.30
2012,11,17,05,26,6.40
2012,11,17,05,27,9.60
2012,11,17,05,28,11.30
2012,11,17,05,29,9.60
2012,11,17,05,30,14.50
2012,11,17,05,31,14.50
2012,11,17,05,32,11.30
2012,11,17,05,33,20.90
2012,11,17,05,34,8.10
2012,11,17,05,35,16.10
2012,11,17,05,36,22.50
2012,11,17,05,37,16.10
2012,11,17,05,38,14.50
2012,11,17,05,39,27.40
2012,11,17,05,40,9.60
2012,11,17,05,41,8.10
2012,11,17,05,42,17.70
2012,11,17,05,43,20.90
2012,11,17,05,44,16.10
2012,11,17,05,45,11.30
2012,11,17,05,46,17.70
2012,11,17,05,47,19.30
2012,11,17,05,48,19.30
2012,11,17,05,49,9.60
2012,11,17,05,50,16.10
2012,11,17,05,51,24.20
2012,11,17,05,52,16.10
2012,11,17,05,53,14.50
2012,11,17,05,54,6.40
2012,11,17,05,55,9.60
2012,11,17,05,56,19.30
2012,11,17,05,57,17.70
2012,11,17,05,58,12.90
2012,11,17,05,59,16.10
2012,11,17,06,00,14.50
2012,11,17,06,01,16.10
2012,11,17,06,02,9.60
2012,11,17,06,03,19.30
2012,11,17,06,04,25.70
2012,11,17,06,05,25.70
2012,11,17,06,06,30.60
2012,11,17,06,07,24.20
2012,11,17,06,08,30.60
2012,11,17,06,09,27.40
2012,11,17,06,10,25.70
2012,11,17,06,11,38.60
2012,11,17,06,12,32.20
2012,11,17,06,13,35.40
2012,11,17,06,14,30.60
2012,11,17,06,15,27.40
2012,11,17,06,16,29.00
2012,11,17,06,17,27.40
2012,11,17,06,18,19.30
2012,11,17,06,19,24.20
2012,11,17,06,20,17.70
2012,11,17,06,21,22.50
2012,11,17,06,22,27.40
2012,11,17,06,23,29.00
2012,11,17,06,24,16.10
2012,11,17,06,25,33.80
2012,11,17,06,26,27.40
2012,11,17,06,27,33.80
2012,11,17,06,28,32.20
2012,11,17,06,29,27.40
2012,11,17,06,30,24.20
2012,11,17,06,31,20.90
2012,11,17,06,32,35.40
2012,11,17,06,33,33.80
2012,11,17,06,34,33.80
2012,11,17,06,35,29.00
2012,11,17,06,36,35.40
2012,11,17,06,37,25.70
2012,11,17,06,38,33.80
2012,11,17,06,39,29.00
2012,11,17,06,40,35.40
2012,11,17,06,41,29.00
2012,11,17,06,42,32.20
2012,11,17,06,43,29.00
2012,11,17,06,44,24.20
2012,11,17,06,45,24.20
2012,11,17,06,46,24.20
2012,11,17,06,47,30.60
2012,11,17,06,48,29.00
2012,11,17,06,49,29.00
2012,11,17,06,50,29.00
2012,11,17,06,51,22.50
2012,11,17,06,52,24.20
2012,11,17,06,53,29.00
2012,11,17,06,54,29.00
2012,11,17,06,55,29.00
2012,11,17,06,56,40.20
2012,11,17,06,57,38.60
2012,11,17,06,58,33.80
2012,11,17,06,59,33.80
2012,11,17,07,00,41.80
2012,11,17,07,01,27.40
2012,11,17,07,02,35.40
2012,11,17,07,03,38.60
2012,11,17,07,04,33.80
2012,11,17,07,05,45.10
2012,11,17,07,06,32.20
2012,11,17,07,07,37.00
2012,11,17,07,08,35.40
2012,11,17,07,09,30.60
2012,11,17,07,10,46.70
2012,11,17,07,11,38.60
2012,11,17,07,12,33.80
2012,11,17,07,13,41.80
2012,11,17,07,14,37.00
2012,11,17,07,15,33.80
2012,11,17,07,16,35.40
2012,11,17,07,17,35.40
2012,11,17,07,18,33.80
2012,11,17,07,19,41.80
2012,11,17,07,20,45.10
2012,11,17,07,21,35.40
2012,11,17,07,22,35.40
2012,11,17,07,23,33.80
2012,11,17,07,24,40.20
2012,11,17,07,25,37.00
2012,11,17,07,26,40.20
2012,11,17,07,27,38.60
2012,11,17,07,28,29.00
2012,11,17,07,29,38.60
2012,11,17,07,30,30.60
2012,11,17,07,31,38.60
2012,11,17,07,32,41.80
2012,11,17,07,33,40.20
2012,11,17,07,34,40.20
2012,11,17,07,35,32.20
2012,11,17,07,36,33.80
2012,11,17,07,37,38.60
2012,11,17,07,38,41.80
2012,11,17,07,39,43.50
2012,11,17,07,40,46.70
2012,11,17,07,41,46.70
2012,11,17,07,42,30.60
2012,11,17,07,43,35.40
2012,11,17,07,44,46.70
2012,11,17,07,45,32.20
2012,11,17,07,46,33.80
2012,11,17,07,47,38.60
2012,11,17,07,48,33.80
2012,11,17,07,49,38.60
2012,11,17,07,50,35.40
2012,11,17,07,51,20.90
2012,11,17,07,52,33.80
2012,11,17,07,53,41.80
2012,11,17,07,54,41.80
2012,11,17,07,55,33.80
2012,11,17,07,56,45.10
2012,11,17,07,57,40.20
2012,11,17,07,58,30.60
2012,11,17,07,59,35.40
2012,11,17,08,00,40.20
2012,11,17,08,01,38.60
2012,11,17,08,02,40.20
2012,11,17,08,03,38.60
2012,11,17,08,04,43.50
2012,11,17,08,05,38.60
2012,11,17,08,06,41.80
2012,11,17,08,07,32.20
2012,11,17,08,08,25.70
2012,11,17,08,09,33.80
2012,11,17,08,10,32.20
2012,11,17,08,11,30.60
2012,11,17,08,12,30.60
2012,11,17,08,13,45.10
2012,11,17,08,14,33.80
2012,11,17,08,15,40.20
2012,11,17,08,16,46.70
2012,11,17,08,17,40.20
2012,11,17,08,18,40.20
2012,11,17,08,19,33.80
2012,11,17,08,20,38.60
2012,11,17,08,21,25.70
2012,11,17,08,22,37.00
2012,11,17,08,23,48.30
2012,11,17,08,24,30.60
2012,11,17,08,25,37.00
2012,11,17,08,26,41.80
2012,11,17,08,27,29.00
2012,11,17,08,28,35.40
2012,11,17,08,29,45.10
2012,11,17,08,30,41.80
2012,11,17,08,31,33.80
2012,11,17,08,32,30.60
2012,11,17,08,33,32.20
2012,11,17,08,34,30.60
2012,11,17,08,35,35.40
2012,11,17,08,36,53.10
2012,11,17,08,37,35.40
2012,11,17,08,38,32.20
2012,11,17,08,39,35.40
2012,11,17,08,40,53.10
2012,11,17,08,41,33.80
2012,11,17,08,42,40.20
2012,11,17,08,43,35.40
2012,11,17,08,44,43.50
2012,11,17,08,45,38.60
2012,11,17,08,46,40.20
2012,11,17,08,47,38.60
2012,11,17,08,48,51.50
2012,11,17,08,49,38.60
2012,11,17,08,50,30.60
2012,11,17,08,51,24.20
2012,11,17,08,52,25.70
2012,11,17,08,53,33.80
2012,11,17,08,54,29.00
2012,11,17,08,55,37.00
2012,11,17,08,56,32.20
2012,11,17,08,57,38.60
2012,11,17,08,58,38.60
2012,11,17,08,59,33.80
2012,11,17,09,00,30.60
2012,11,17,09,01,19.30
2012,11,17,09,02,33.80
2012,11,17,09,03,29.00
2012,11,17,09,04,41.80
2012,11,17,09,05,24.20
2012,11,17,09,06,24.20
2012,11,17,09,07,25.70
2012,11,17,09,08,29.00
2012,11,17,09,09,24.20
2012,11,17,09,10,45.10
2012,11,17,09,11,27.40
2012,11,17,09,12,35.40
2012,11,17,09,13,35.40
2012,11,17,09,14,41.80
2012,11,17,09,15,37.00
2012,11,17,09,16,35.40
2012,11,17,09,17,29.00
2012,11,17,09,18,29.00
2012,11,17,09,19,32.20
2012,11,17,09,20,33.80
2012,11,17,09,21,22.50
2012,11,17,09,22,30.60
2012,11,17,09,23,30.60
2012,11,17,09,24,24.20
2012,11,17,09,25,24.20
2012,11,17,09,26,29.00
2012,11,17,09,27,29.00
2012,11,17,09,28,29.00
2012,11,17,09,29,37.00
2012,11,17,09,30,22.50
2012,11,17,09,31,32.20
2012,11,17,09,32,25.70
2012,11,17,09,33,30.60
2012,11,17,09,34,22.50
2012,11,17,09,35,24.20
2012,11,17,09,36,14.50
2012,11,17,09,37,14.50
2012,11,17,09,38,19.30
2012,11,17,09,39,19.30
2012,11,17,09,40,19.30
2012,11,17,09,41,9.60
2012,11,17,09,42,11.30
2012,11,17,09,43,14.50
2012,11,17,09,44,16.10
2012,11,17,09,45,19.30
2012,11,17,09,46,12.90
2012,11,17,09,47,9.60
2012,11,17,09,48,14.50
2012,11,17,09,49,11.30
2012,11,17,09,50,9.60
2012,11,17,09,51,9.60
2012,11,17,09,52,3.20
2012,11,17,09,53,8.10
2012,11,17,09,54,14.50
2012,11,17,09,55,14.50
2012,11,17,09,56,9.60
2012,11,17,09,57,9.60
2012,11,17,09,58,12.90
2012,11,17,09,59,8.10
2012,11,17,10,00,6.40
2012,11,17,10,01,17.70
2012,11,17,10,02,12.90
2012,11,17,10,03,16.10
2012,11,17,10,04,14.50
2012,11,17,10,05,16.10
2012,11,17,10,06,11.30
2012,11,17,10,07,6.40
2012,11,17,10,08,3.20
2012,11,17,10,09,3.20
2012,11,17,10,10,4.80
2012,11,17,10,11,1.60
2012,11,17,10,12,4.80
2012,11,17,10,13,4.80
2012,11,17,10,14,1.60
2012,11,17,10,15,4.80
2012,11,17,10,16,4.80
2012,11,17,10,17,4.80
2012,11,17,10,18,6.40
2012,11,17,10,19,8.10
2012,11,17,10,20,6.40
2012,11,17,10,21,3.20
2012,11,17,10,22,4.80
2012,11,17,10,23,6.40
2012,11,17,10,24,6.40
2012,11,17,10,25,8.10
2012,11,17,10,26,9.60
2012,11,17,10,27,8.10
2012,11,17,10,28,9.60
2012,11,17,10,29,9.60
2012,11,17,10,30,6.40
2012,11,17,10,31,9.60
2012,11,17,10,32,8.10
2012,11,17,10,33,12.90
2012,11,17,10,34,11.30
2012,11,17,10,35,9.60
2012,11,17,10,36,19.30
2012,11,17,10,37,19.30
2012,11,17,10,38,17.70
2012,11,17,10,39,12.90
2012,11,17,10,40,14.50
2012,11,17,10,41,12.90
2012,11,17,10,42,9.60
2012,11,17,10,43,11.30
2012,11,17,10,44,4.80
2012,11,17,10,45,9.60
2012,11,17,10,46,16.10
2012,11,17,10,47,29.00
2012,11,17,10,48,22.50
2012,11,17,10,49,22.50
2012,11,17,10,50,22.50
2012,11,17,10,51,9.60
2012,11,17,10,52,14.50
2012,11,17,10,53,14.50
2012,11,17,10,54,25.70
2012,11,17,10,55,20.90
2012,11,17,10,56,14.50
2012,11,17,10,57,11.30
2012,11,17,10,58,9.60
2012,11,17,10,59,20.90
2012,11,17,11,00,17.70
2012,11,17,11,01,19.30
2012,11,17,11,02,20.90
2012,11,17,11,03,16.10
2012,11,17,11,04,11.30
2012,11,17,11,05,20.90
2012,11,17,11,06,20.90
2012,11,17,11,07,19.30
2012,11,17,11,08,20.90
2012,11,17,11,09,17.70
2012,11,17,11,10,12.90
2012,11,17,11,11,17.70
2012,11,17,11,12,20.90
2012,11,17,11,13,16.10
2012,11,17,11,14,24.20
2012,11,17,11,15,30.60
2012,11,17,11,16,24.20
2012,11,17,11,17,19.30
2012,11,17,11,18,19.30
2012,11,17,11,19,22.50
2012,11,17,11,20,17.70
2012,11,17,11,21,17.70
2012,11,17,11,22,25.70
2012,11,17,11,23,16.10
2012,11,17,11,24,20.90
2012,11,17,11,25,32.20
2012,11,17,11,26,20.90
2012,11,17,11,27,14.50
2012,11,17,11,28,17.70
2012,11,17,11,29,16.10
2012,11,17,11,30,22.50
2012,11,17,11,31,20.90
2012,11,17,11,32,24.20
2012,11,17,11,33,25.70
2012,11,17,11,34,25.70
2012,11,17,11,35,16.10
2012,11,17,11,36,27.40
2012,11,17,11,37,29.00
2012,11,17,11,38,22.50
2012,11,17,11,39,11.30
2012,11,17,11,40,24.20
2012,11,17,11,41,29.00
2012,11,17,11,42,24.20
2012,11,17,11,43,19.30
2012,11,17,11,44,17.70
2012,11,17,11,45,24.20
2012,11,17,11,46,11.30
2012,11,17,11,47,11.30
2012,11,17,11,48,22.50
2012,11,17,11,49,17.70
2012,11,17,11,50,17.70
2012,11,17,11,51,14.50
2012,11,17,11,52,24.20
2012,11,17,11,53,43.50
2012,11,17,11,54,33.80
2012,11,17,11,55,29.00
2012,11,17,11,56,25.70
2012,11,17,11,57,30.60
2012,11,17,11,58,27.40
2012,11,17,11,59,37.00
2012,11,17,12,00,41.80
2012,11,17,12,01,32.20
2012,11,17,12,02,25.70
2012,11,17,12,03,24.20
2012,11,17,12,04,29.00
2012,11,17,12,05,29.00
2012,11,17,12,06,35.40
2012,11,17,12,07,25.70
2012,11,17,12,08,24.20
2012,11,17,12,09,29.00
2012,11,17,12,10,27.40
2012,11,17,12,11,30.60
2012,11,17,12,12,22.50
2012,11,17,12,13,25.70
2012,11,17,12,14,17.70
2012,11,17,12,15,20.90
2012,11,17,12,16,27.40
2012,11,17,12,17,37.00
2012,11,17,12,18,38.60
2012,11,17,12,19,32.20
2012,11,17,12,20,20.90
2012,11,17,12,21,22.50
2012,11,17,12,22,30.60
2012,11,17,12,23,27.40
2012,11,17,12,24,29.00
2012,11,17,12,25,30.60
2012,11,17,12,26,29.00
2012,11,17,12,27,22.50
2012,11,17,12,28,16.10
2012,11,17,12,29,24.20
2012,11,17,12,30,30.60
2012,11,17,12,31,32.20
2012,11,17,12,32,32.20
2012,11,17,12,33,38.60
2012,11,17,12,34,33.80
2012,11,17,12,35,33.80
2012,11,17,12,36,30.60
2012,11,17,12,37,35.40
2012,11,17,12,38,40.20
2012,11,17,12,39,49.90
2012,11,17,12,40,35.40
2012,11,17,12,41,32.20
2012,11,17,12,42,38.60
2012,11,17,12,43,38.60
2012,11,17,12,44,38.60
2012,11,17,12,45,30.60
2012,11,17,12,46,25.70
2012,11,17,12,47,40.20
2012,11,17,12,48,27.40
2012,11,17,12,49,30.60
2012,11,17,12,50,27.40
2012,11,17,12,51,17.70
2012,11,17,12,52,27.40
2012,11,17,12,53,35.40
2012,11,17,12,54,25.70
2012,11,17,12,55,37.00
2012,11,17,12,56,29.00
2012,11,17,12,57,38.60
2012,11,17,12,58,37.00
2012,11,17,12,59,33.80
2012,11,17,13,00,35.40
2012,11,17,13,01,33.80
2012,11,17,13,02,40.20
2012,11,17,13,03,30.60
2012,11,17,13,04,35.40
2012,11,17,13,05,24.20
2012,11,17,13,06,32.20
2012,11,17,13,07,29.00
2012,11,17,13,08,20.90
2012,11,17,13,09,22.50
2012,11,17,13,10,25.70
2012,11,17,13,11,32.20
2012,11,17,13,12,30.60
2012,11,17,13,13,25.70
2012,11,17,13,14,24.20
2012,11,17,13,15,29.00
2012,11,17,13,16,27.40
2012,11,17,13,17,27.40
2012,11,17,13,18,22.50
2012,11,17,13,19,32.20
2012,11,17,13,20,24.20
2012,11,17,13,21,20.90
2012,11,17,13,22,22.50
2012,11,17,13,23,22.50
2012,11,17,13,24,24.20
2012,11,17,13,25,25.70
2012,11,17,13,26,25.70
2012,11,17,13,27,25.70
2012,11,17,13,28,20.90
2012,11,17,13,29,24.20
2012,11,17,13,30,20.90
2012,11,17,13,31,17.70
2012,11,17,13,32,22.50
2012,11,17,13,33,25.70
2012,11,17,13,34,24.20
2012,11,17,13,35,16.10
2012,11,17,13,36,25.70
2012,11,17,13,37,25.70
2012,11,17,13,38,22.50
2012,11,17,13,39,16.10
2012,11,17,13,40,22.50
2012,11,17,13,41,22.50
2012,11,17,13,42,20.90
2012,11,17,13,43,20.90
2012,11,17,13,44,19.30
2012,11,17,13,45,17.70
2012,11,17,13,46,20.90
2012,11,17,13,47,14.50
2012,11,17,13,48,16.10
2012,11,17,13,49,17.70
2012,11,17,13,50,16.10
2012,11,17,13,51,12.90
2012,11,17,13,52,16.10
2012,11,17,13,53,19.30
2012,11,17,13,54,22.50
2012,11,17,13,55,14.50
2012,11,17,13,56,19.30
2012,11,17,13,57,12.90
2012,11,17,13,58,16.10
2012,11,17,13,59,8.10
2012,11,17,14,00,6.40
2012,11,17,14,01,6.40
2012,11,17,14,02,8.10
2012,11,17,14,03,11.30
2012,11,17,14,04,9.60
2012,11,17,14,05,8.10
2012,11,17,14,06,6.40
2012,11,17,14,07,4.80
2012,11,17,14,08,8.10
2012,11,17,14,09,8.10
2012,11,17,14,10,8.10
2012,11,17,14,11,11.30
2012,11,17,14,12,6.40
2012,11,17,14,13,8.10
2012,11,17,14,14,6.40
2012,11,17,14,15,6.40
2012,11,17,14,16,4.80
2012,11,17,14,17,6.40
2012,11,17,14,18,6.40
2012,11,17,14,19,4.80
2012,11,17,14,20,4.80
2012,11,17,14,21,3.20
2012,11,17,14,22,4.80
2012,11,17,14,23,6.40
2012,11,17,14,24,9.60
2012,11,17,14,25,8.10
2012,11,17,14,26,6.40
2012,11,17,14,27,9.60
2012,11,17,14,28,6.40
2012,11,17,14,29,6.40
2012,11,17,14,30,6.40
2012,11,17,14,31,4.80
2012,11,17,14,32,4.80
2012,11,17,14,33,9.60
2012,11,17,14,34,14.50
2012,11,17,14,35,11.30
2012,11,17,14,36,8.10
2012,11,17,14,37,9.60
2012,11,17,14,38,9.60
2012,11,17,14,39,8.10
2012,11,17,14,40,12.90
2012,11,17,14,41,9.60
2012,11,17,14,42,9.60
2012,11,17,14,43,11.30
2012,11,17,14,44,16.10
2012,11,17,14,45,16.10
2012,11,17,14,46,8.10
2012,11,17,14,47,11.30
2012,11,17,14,48,11.30
2012,11,17,14,49,14.50
2012,11,17,14,50,8.10
2012,11,17,14,51,9.60
2012,11,17,14,52,11.30
2012,11,17,14,53,9.60
2012,11,17,14,54,9.60
2012,11,17,14,55,8.10
2012,11,17,14,56,9.60
2012,11,17,14,57,6.40
2012,11,17,14,58,6.40
2012,11,17,14,59,11.30
2012,11,17,15,00,11.30
2012,11,17,15,01,11.30
2012,11,17,15,02,9.60
2012,11,17,15,03,9.60
2012,11,17,15,04,4.80
2012,11,17,15,05,8.10
2012,11,17,15,06,8.10
2012,11,17,15,07,6.40
2012,11,17,15,08,11.30
2012,11,17,15,09,8.10
2012,11,17,15,10,17.70
2012,11,17,15,11,17.70
2012,11,17,15,12,12.90
2012,11,17,15,13,17.70
2012,11,17,15,14,17.70
2012,11,17,15,15,20.90
2012,11,17,15,16,16.10
2012,11,17,15,17,14.50
2012,11,17,15,18,17.70
2012,11,17,15,19,19.30
2012,11,17,15,20,16.10
2012,11,17,15,21,14.50
2012,11,17,15,22,11.30
2012,11,17,15,23,9.60
2012,11,17,15,24,8.10
2012,11,17,15,25,11.30
2012,11,17,15,26,8.10
2012,11,17,15,27,14.50
2012,11,17,15,28,11.30
2012,11,17,15,29,8.10
2012,11,17,15,30,4.80
2012,11,17,15,31,3.20
2012,11,17,15,32,8.10
2012,11,17,15,33,6.40
2012,11,17,15,34,4.80
2012,11,17,15,35,6.40
2012,11,17,15,36,6.40
2012,11,17,15,37,4.80
2012,11,17,15,38,6.40
2012,11,17,15,39,4.80
2012,11,17,15,40,3.20
2012,11,17,15,41,4.80
2012,11,17,15,42,6.40
2012,11,17,15,43,8.10
2012,11,17,15,44,8.10
2012,11,17,15,45,4.80
2012,11,17,15,46,6.40
2012,11,17,15,47,8.10
2012,11,17,15,48,6.40
2012,11,17,15,49,4.80
2012,11,17,15,50,4.80
2012,11,17,15,51,6.40
2012,11,17,15,52,4.80
2012,11,17,15,53,6.40
2012,11,17,15,54,6.40
2012,11,17,15,55,6.40
2012,11,17,15,56,6.40
2012,11,17,15,57,3.20
2012,11,17,15,58,6.40
2012,11,17,15,59,4.80
2012,11,17,16,00,4.80
2012,11,17,16,01,8.10
2012,11,17,16,02,8.10
2012,11,17,16,03,6.40
2012,11,17,16,04,8.10
2012,11,17,16,05,4.80
2012,11,17,16,06,8.10
2012,11,17,16,07,8.10
2012,11,17,16,08,6.40
2012,11,17,16,09,6.40
2012,11,17,16,10,4.80
2012,11,17,16,11,6.40
2012,11,17,16,12,3.20
2012,11,17,16,13,3.20
2012,11,17,16,14,3.20
2012,11,17,16,15,1.60
2012,11,17,16,16,3.20
2012,11,17,16,17,3.20
2012,11,17,16,18,3.20
2012,11,17,16,19,1.60
2012,11,17,16,20,1.60
2012,11,17,16,21,1.60
2012,11,17,16,22,1.60
2012,11,17,16,23,1.60
2012,11,17,16,24,3.20
2012,11,17,16,25,3.20
2012,11,17,16,26,1.60
2012,11,17,16,27,1.60
2012,11,17,16,28,3.20
2012,11,17,16,29,3.20
2012,11,17,16,30,1.60
2012,11,17,16,37,1.60
2012,11,17,16,38,4.80
2012,11,17,16,39,4.80
2012,11,17,16,40,4.80
2012,11,17,16,41,4.80
2012,11,17,16,42,4.80
2012,11,17,16,43,4.80
2012,11,17,16,44,6.40
2012,11,17,16,45,4.80
2012,11,17,16,46,4.80
2012,11,17,16,47,4.80
2012,11,17,16,48,4.80
2012,11,17,16,49,4.80
2012,11,17,16,50,6.40
2012,11,17,16,51,3.20
2012,11,17,16,52,6.40
2012,11,17,16,53,11.30
2012,11,17,16,54,9.60
2012,11,17,16,55,9.60
2012,11,17,16,56,16.10
2012,11,17,16,57,16.10
2012,11,17,16,58,11.30
2012,11,17,16,59,8.10
2012,11,17,17,00,14.50
2012,11,17,17,01,11.30
2012,11,17,17,02,8.10
2012,11,17,17,03,9.60
2012,11,17,17,04,9.60
2012,11,17,17,05,11.30
2012,11,17,17,06,11.30
2012,11,17,17,07,17.70
2012,11,17,17,08,12.90
2012,11,17,17,09,9.60
2012,11,17,17,10,11.30
2012,11,17,17,11,14.50
2012,11,17,17,12,11.30
2012,11,17,17,13,16.10
2012,11,17,17,14,20.90
2012,11,17,17,15,24.20
2012,11,17,17,16,16.10
2012,11,17,17,17,11.30
2012,11,17,17,18,17.70
2012,11,17,17,19,8.10
2012,11,17,17,20,11.30
2012,11,17,17,21,17.70
2012,11,17,17,22,11.30
2012,11,17,17,23,8.10
2012,11,17,17,24,9.60
2012,11,17,17,25,11.30
2012,11,17,17,26,14.50
2012,11,17,17,27,8.10
2012,11,17,17,28,16.10
2012,11,17,17,29,11.30
2012,11,17,17,30,8.10
2012,11,17,17,31,8.10
2012,11,17,17,32,4.80
2012,11,17,17,33,9.60
2012,11,17,17,34,9.60
2012,11,17,17,35,9.60
2012,11,17,17,36,9.60
2012,11,17,17,37,6.40
2012,11,17,17,38,8.10
2012,11,17,17,39,14.50
2012,11,17,17,40,8.10
2012,11,17,17,41,6.40